| time (UTC) | temp C | wind direction | speed KPH | gust KPH | rain 1hr cm | rain 24hr cm | rain mn cm | humidity % | barometer mb |
| 20260507083516 | -1 | 68 | 8.0 | 16.1 | 0.00 | 0.18 | 0.00 | 56 | 1022.6 |
| 20260507082536 | 0 | 23 | 4.8 | 9.7 | 0.00 | 0.18 | 0.00 | 55 | 1021.0 |
| 20260507081536 | -1 | 0 | 4.8 | 11.3 | 0.00 | 0.18 | 0.00 | 55 | 1021.2 |
| 20260507080516 | -1 | 0 | 6.4 | 16.1 | 0.00 | 0.18 | 0.00 | 54 | 1021.3 |
| 20260507075516 | -1 | 0 | 9.7 | 19.3 | 0.00 | 0.18 | 0.00 | 52 | 1021.9 |
| 20260507074516 | -1 | 0 | 19.3 | 30.6 | 0.00 | 0.18 | 0.00 | 52 | 1021.2 |
| 20260507073516 | -1 | 0 | 14.5 | 25.7 | 0.00 | 0.18 | 0.00 | 53 | 1021.1 |
| 20260507072516 | -2 | 0 | 8.0 | 16.1 | 0.00 | 0.18 | 0.00 | 54 | 1021.1 |
| 20260507071516 | -2 | 0 | 12.9 | 20.9 | 0.00 | 0.18 | 0.00 | 56 | 1021.1 |
| 20260507070516 | -2 | 0 | 19.3 | 40.2 | 0.00 | 0.18 | 0.00 | 56 | 1020.9 |
| 20260507065536 | -2 | 0 | 19.3 | 38.6 | 0.00 | 0.18 | 0.00 | 57 | 1021.0 |
| 20260507064516 | -2 | 0 | 16.1 | 30.6 | 0.00 | 0.18 | 0.00 | 59 | 1021.2 |
| 20260507063516 | -2 | 0 | 22.5 | 33.8 | 0.00 | 0.18 | 0.00 | 61 | 1021.1 |
| 20260507062516 | -2 | 0 | 17.7 | 45.1 | 0.00 | 0.18 | 0.00 | 61 | 1021.2 |
| 20260507061515 | -2 | 0 | 22.5 | 38.6 | 0.00 | 0.18 | 0.00 | 63 | 1021.2 |
| 20260507060515 | -2 | 0 | 11.3 | 29.0 | 0.00 | 0.18 | 0.00 | 62 | 1021.5 |
| 20260507055517 | -3 | 0 | 8.0 | 17.7 | 0.00 | 0.18 | 0.18 | 63 | 1020.2 |
| 20260507054536 | -3 | 0 | 9.7 | 22.5 | 0.00 | 0.18 | 0.18 | 63 | 1020.2 |
| 20260507053516 | -2 | 0 | 19.3 | 32.2 | 0.00 | 0.18 | 0.18 | 61 | 1020.6 |
| 20260507052516 | -2 | 0 | 20.9 | 35.4 | 0.00 | 0.18 | 0.18 | 63 | 1019.6 |
| 20260507051517 | -2 | 0 | 19.3 | 32.2 | 0.00 | 0.18 | 0.18 | 62 | 1020.4 |
| 20260507050516 | -3 | 0 | 19.3 | 32.2 | 0.00 | 0.18 | 0.18 | 65 | 1019.5 |
| 20260507045516 | -3 | 0 | 17.7 | 32.2 | 0.00 | 0.18 | 0.18 | 64 | 1019.5 |
| 20260507044536 | -3 | 0 | 16.1 | 29.0 | 0.00 | 0.18 | 0.18 | 63 | 1019.3 |
| 20260507043516 | -3 | 0 | 20.9 | 32.2 | 0.00 | 0.18 | 0.18 | 62 | 1019.2 |
| 20260507042516 | -3 | 0 | 16.1 | 27.4 | 0.00 | 0.18 | 0.18 | 64 | 1018.6 |
| 20260507041516 | -3 | 0 | 17.7 | 33.8 | 0.00 | 0.18 | 0.18 | 61 | 1018.4 |
| 20260507040536 | -3 | 0 | 16.1 | 38.6 | 0.00 | 0.18 | 0.18 | 63 | 1018.2 |
| 20260507035516 | -3 | 0 | 16.1 | 35.4 | 0.00 | 0.18 | 0.18 | 63 | 1018.3 |
| 20260507034536 | -2 | 0 | 16.1 | 33.8 | 0.00 | 0.18 | 0.18 | 64 | 1018.2 |
| 20260507033516 | -2 | 0 | 12.9 | 29.0 | 0.00 | 0.18 | 0.18 | 63 | 1018.2 |
| 20260507032636 | -2 | 0 | 12.9 | 29.0 | 0.00 | 0.18 | 0.18 | 64 | 1018.2 |
| 20260507031516 | -2 | 0 | 14.5 | 32.2 | 0.00 | 0.18 | 0.18 | 65 | 1018.1 |
| 20260507030516 | -2 | 0 | 12.9 | 30.6 | 0.00 | 0.18 | 0.18 | 63 | 1017.7 |
| 20260507025516 | -2 | 0 | 16.1 | 48.3 | 0.00 | 0.18 | 0.18 | 63 | 1017.8 |
| 20260507024516 | -2 | 0 | 16.1 | 29.0 | 0.00 | 0.18 | 0.18 | 63 | 1018.3 |
| 20260507023536 | -2 | 0 | 17.7 | 45.1 | 0.00 | 0.18 | 0.18 | 64 | 1018.1 |
| 20260507022516 | -2 | 0 | 20.9 | 45.1 | 0.00 | 0.18 | 0.18 | 63 | 1017.4 |
| 20260507021536 | -2 | 0 | 19.3 | 46.7 | 0.00 | 0.18 | 0.18 | 64 | 1017.3 |
| 20260507020515 | -2 | 0 | 12.9 | 30.6 | 0.00 | 0.18 | 0.18 | 63 | 1017.0 |
| 20260507015556 | -2 | 0 | 14.5 | 32.2 | 0.00 | 0.18 | 0.18 | 63 | 1017.0 |
| 20260507014516 | -1 | 0 | 9.7 | 27.4 | 0.00 | 0.18 | 0.18 | 65 | 1017.1 |
| 20260507013536 | -1 | 0 | 8.0 | 19.3 | 0.03 | 0.18 | 0.18 | 63 | 1017.2 |
| 20260507012515 | 0 | 0 | 14.5 | 38.6 | 0.03 | 0.18 | 0.18 | 60 | 1018.0 |
| 20260507011516 | 0 | 0 | 16.1 | 48.3 | 0.03 | 0.18 | 0.18 | 60 | 1017.8 |
| 20260507010555 | 0 | 0 | 14.5 | 43.5 | 0.03 | 0.18 | 0.18 | 59 | 1018.6 |
| 20260507005516 | 0 | 0 | 8.0 | 24.1 | 0.03 | 0.18 | 0.18 | 59 | 1018.9 |
| 20260507004516 | 0 | 0 | 8.0 | 24.1 | 0.05 | 0.18 | 0.18 | 55 | 1018.8 |
| 20260507003516 | 0 | 0 | 11.3 | 22.5 | 0.03 | 0.15 | 0.15 | 58 | 1018.7 |
| 20260507002535 | 0 | 0 | 8.0 | 25.7 | 0.05 | 0.15 | 0.15 | 56 | 1018.5 |
| 20260507001516 | 1 | 45 | 6.4 | 16.1 | 0.05 | 0.15 | 0.15 | 61 | 1019.1 |
| 20260507000515 | 1 | 0 | 6.4 | 19.3 | 0.05 | 0.15 | 0.15 | 59 | 1019.1 |
| 20260506235515 | 1 | 45 | 9.7 | 22.5 | 0.05 | 0.15 | 0.15 | 59 | 1019.1 |
| 20260506234515 | 0 | 0 | 6.4 | 24.1 | 0.05 | 0.13 | 0.13 | 61 | 1018.4 |
| 20260506233515 | 1 | 0 | 6.4 | 20.9 | 0.05 | 0.13 | 0.13 | 62 | 1019.1 |
| 20260506232515 | 0 | 0 | 8.0 | 20.9 | 0.03 | 0.10 | 0.10 | 64 | 1018.3 |
| 20260506231515 | 0 | 0 | 6.4 | 17.7 | 0.05 | 0.10 | 0.10 | 60 | 1018.1 |
| 20260506230517 | 0 | 0 | 4.8 | 14.5 | 0.08 | 0.10 | 0.10 | 66 | 1018.2 |
| 20260506225517 | 0 | 0 | 8.0 | 37.0 | 0.08 | 0.10 | 0.10 | 65 | 1018.3 |
| 20260506224517 | 0 | 45 | 8.0 | 19.3 | 0.05 | 0.08 | 0.08 | 63 | 1018.1 |
| 20260506223517 | 0 | 0 | 8.0 | 19.3 | 0.05 | 0.08 | 0.08 | 65 | 1018.5 |
| 20260506222517 | 0 | 0 | 8.0 | 20.9 | 0.05 | 0.08 | 0.08 | 65 | 1018.3 |
| 20260506221517 | 0 | 23 | 3.2 | 6.4 | 0.03 | 0.05 | 0.05 | 73 | 1017.8 |
| 20260506220537 | -1 | 0 | 6.4 | 16.1 | 0.00 | 0.03 | 0.03 | 82 | 1018.1 |
| 20260506215537 | -1 | 0 | 4.8 | 14.5 | 0.00 | 0.03 | 0.03 | 81 | 1017.4 |
| 20260506214517 | -1 | 293 | 3.2 | 8.0 | 0.00 | 0.03 | 0.03 | 81 | 1018.1 |
| 20260506213517 | -1 | 315 | 1.6 | 6.4 | 0.00 | 0.05 | 0.03 | 80 | 1017.5 |
| 20260506212517 | -1 | 315 | 1.6 | 4.8 | 0.00 | 0.05 | 0.03 | 82 | 1017.5 |
| 20260506211517 | -2 | 315 | 3.2 | 6.4 | 0.00 | 0.05 | 0.03 | 82 | 1017.3 |
| 20260506210517 | -2 | 293 | 6.4 | 14.5 | 0.00 | 0.08 | 0.03 | 85 | 1017.4 |
| 20260506205517 | -2 | 338 | 1.6 | 6.4 | 0.00 | 0.08 | 0.03 | 82 | 1017.5 |
| 20260506204517 | -3 | 0 | 3.2 | 9.7 | 0.00 | 0.08 | 0.03 | 82 | 1016.8 |
| 20260506203517 | -2 | 315 | 3.2 | 11.3 | 0.00 | 0.08 | 0.03 | 83 | 1017.5 |
| 20260506202517 | -2 | 338 | 4.8 | 14.5 | 0.00 | 0.10 | 0.03 | 86 | 1017.4 |
| 20260506201517 | -3 | 0 | 1.6 | 4.8 | 0.00 | 0.10 | 0.03 | 86 | 1017.4 |
| 20260506200517 | -3 | 0 | 1.6 | 6.4 | 0.00 | 0.10 | 0.03 | 86 | 1016.6 |
| 20260506195516 | -3 | 338 | 3.2 | 8.0 | 0.00 | 0.13 | 0.03 | 85 | 1016.5 |
| 20260506194517 | -2 | 0.0 | 4.8 | 0.00 | 0.13 | 0.03 | 83 | 1017.1 | |
| 20260506193537 | -3 | 270 | 1.6 | 4.8 | 0.00 | 0.13 | 0.03 | 85 | 1017.2 |
| 20260506192537 | -3 | 0.0 | 4.8 | 0.03 | 0.13 | 0.03 | 85 | 1017.2 | |
| 20260506191517 | -2 | 0.0 | 3.2 | 0.03 | 0.13 | 0.03 | 79 | 1017.1 | |
| 20260506190516 | -2 | 0.0 | 3.2 | 0.03 | 0.15 | 0.03 | 79 | 1017.1 | |
| 20260506185517 | -3 | 0.0 | 1.6 | 0.03 | 0.15 | 0.03 | 84 | 1017.1 | |
| 20260506184516 | -3 | 0.0 | 3.2 | 0.03 | 0.15 | 0.03 | 81 | 1016.3 | |
| 20260506183516 | -2 | 0.0 | 0.0 | 0.03 | 0.15 | 0.03 | 78 | 1017.1 | |
| 20260506182516 | -2 | 0.0 | 4.8 | 0.00 | 0.15 | 0.00 | 80 | 1017.1 | |
| 20260506181516 | -2 | 0.0 | 3.2 | 0.00 | 0.15 | 0.00 | 75 | 1017.1 | |
| 20260506180537 | -2 | 0.0 | 3.2 | 0.00 | 0.18 | 0.00 | 75 | 1018.0 | |
| 20260506175516 | -2 | 0.0 | 1.6 | 0.00 | 0.18 | 0.00 | 76 | 1018.0 | |
| 20260506174516 | -2 | 0.0 | 3.2 | 0.00 | 0.18 | 0.00 | 80 | 1017.3 | |
| 20260506173516 | -3 | 0.0 | 4.8 | 0.00 | 0.18 | 0.00 | 79 | 1016.5 | |
| 20260506172516 | -4 | 0.0 | 4.8 | 0.00 | 0.18 | 0.00 | 83 | 1016.5 | |
| 20260506171516 | -5 | 135 | 1.6 | 6.4 | 0.00 | 0.20 | 0.00 | 81 | 1015.6 |
| 20260506170616 | -4 | 135 | 1.6 | 6.4 | 0.00 | 0.23 | 0.00 | 84 | 1016.1 |
| 20260506165536 | -5 | 135 | 1.6 | 9.7 | 0.00 | 0.23 | 0.00 | 86 | 1015.3 |
| 20260506164516 | -5 | 135 | 1.6 | 4.8 | 0.00 | 0.23 | 0.00 | 85 | 1015.2 |
| 20260506163516 | -6 | 135 | 3.2 | 11.3 | 0.00 | 0.23 | 0.00 | 84 | 1014.2 |
| 20260506162516 | -5 | 113 | 3.2 | 12.9 | 0.00 | 0.23 | 0.00 | 85 | 1014.8 |
| 20260506161516 | -5 | 0.0 | 4.8 | 0.00 | 0.23 | 0.00 | 87 | 1014.6 | |
| 20260506160536 | -6 | 0.0 | 4.8 | 0.00 | 0.23 | 0.00 | 86 | 1014.5 | |
| 20260506155516 | -5 | 0.0 | 3.2 | 0.00 | 0.23 | 0.00 | 87 | 1015.1 | |
| 20260506154516 | -6 | 135 | 1.6 | 4.8 | 0.00 | 0.23 | 0.00 | 87 | 1014.5 |
| 20260506153516 | -6 | 135 | 1.6 | 6.4 | 0.00 | 0.23 | 0.00 | 87 | 1014.1 |
| 20260506152556 | -6 | 0.0 | 3.2 | 0.00 | 0.23 | 0.00 | 88 | 1014.4 | |
| 20260506151516 | -6 | 0.0 | 3.2 | 0.00 | 0.23 | 0.00 | 88 | 1014.3 | |
| 20260506150516 | -6 | 0.0 | 3.2 | 0.00 | 0.23 | 0.00 | 88 | 1014.3 | |
| 20260506145516 | -6 | 0.0 | 3.2 | 0.00 | 0.23 | 0.00 | 90 | 1014.3 | |
| 20260506144516 | -6 | 0.0 | 4.8 | 0.00 | 0.23 | 0.00 | 90 | 1014.1 | |
| 20260506143536 | -6 | 0.0 | 3.2 | 0.00 | 0.23 | 0.00 | 90 | 1014.1 | |
| 20260506142516 | -6 | 0.0 | 1.6 | 0.00 | 0.23 | 0.00 | 91 | 1014.0 | |
| 20260506141536 | -7 | 0.0 | 3.2 | 0.00 | 0.23 | 0.00 | 91 | 1014.0 | |
| 20260506140515 | -7 | 180 | 1.6 | 4.8 | 0.00 | 0.23 | 0.00 | 91 | 1013.7 |
| 20260506135536 | -7 | 180 | 1.6 | 4.8 | 0.00 | 0.23 | 0.00 | 92 | 1013.6 |
| 20260506134536 | -7 | 203 | 1.6 | 4.8 | 0.00 | 0.23 | 0.00 | 92 | 1013.4 |
| 20260506133515 | -7 | 203 | 1.6 | 4.8 | 0.00 | 0.23 | 0.00 | 92 | 1013.4 |
| 20260506132515 | -7 | 203 | 1.6 | 4.8 | 0.00 | 0.23 | 0.00 | 92 | 1013.3 |
| 20260506131535 | -7 | 203 | 1.6 | 6.4 | 0.00 | 0.23 | 0.00 | 92 | 1012.9 |
| 20260506130515 | -7 | 225 | 1.6 | 9.7 | 0.00 | 0.23 | 0.00 | 92 | 1012.7 |
| 20260506125515 | -7 | 180 | 1.6 | 6.4 | 0.00 | 0.23 | 0.00 | 92 | 1013.2 |
| 20260506124515 | -7 | 180 | 1.6 | 4.8 | 0.00 | 0.23 | 0.00 | 92 | 1013.1 |
| 20260506123516 | -7 | 0.0 | 4.8 | 0.00 | 0.23 | 0.00 | 92 | 1012.9 | |
| 20260506122515 | -7 | 0.0 | 3.2 | 0.00 | 0.23 | 0.00 | 92 | 1012.6 | |
| 20260506121516 | -7 | 180 | 1.6 | 3.2 | 0.00 | 0.23 | 0.00 | 92 | 1012.4 |
| 20260506120516 | -7 | 0.0 | 3.2 | 0.00 | 0.23 | 0.00 | 92 | 1012.5 | |
| 20260506115536 | -7 | 0.0 | 3.2 | 0.00 | 0.23 | 0.00 | 92 | 1012.4 | |
| 20260506114515 | -7 | 0.0 | 3.2 | 0.00 | 0.23 | 0.00 | 93 | 1012.0 | |
| 20260506113515 | -7 | 0.0 | 3.2 | 0.00 | 0.23 | 0.00 | 93 | 1011.9 | |
| 20260506112515 | -7 | 0.0 | 1.6 | 0.00 | 0.23 | 0.00 | 92 | 1011.8 | |
| 20260506111515 | -7 | 0.0 | 3.2 | 0.00 | 0.23 | 0.00 | 93 | 1011.6 | |
| 20260506110515 | -7 | 0.0 | 3.2 | 0.00 | 0.23 | 0.00 | 93 | 1011.5 | |
| 20260506105517 | -7 | 0.0 | 0.0 | 0.00 | 0.23 | 0.00 | 93 | 1011.3 | |
| 20260506104517 | -7 | 0.0 | 0.0 | 0.00 | 0.23 | 0.00 | 93 | 1011.4 | |
| 20260506103517 | -7 | 0.0 | 0.0 | 0.00 | 0.23 | 0.00 | 92 | 1011.4 | |
| 20260506102517 | -7 | 0.0 | 3.2 | 0.00 | 0.25 | 0.00 | 92 | 1011.1 | |
| 20260506101517 | -7 | 0.0 | 3.2 | 0.00 | 0.25 | 0.00 | 92 | 1011.3 | |
| 20260506100517 | -7 | 158 | 1.6 | 6.4 | 0.00 | 0.25 | 0.00 | 92 | 1011.4 |
| 20260506095517 | -7 | 158 | 1.6 | 8.0 | 0.00 | 0.25 | 0.00 | 92 | 1011.9 |
| 20260506094517 | -7 | 158 | 1.6 | 8.0 | 0.00 | 0.25 | 0.00 | 92 | 1012.1 |
| 20260506093517 | -7 | 158 | 1.6 | 6.4 | 0.00 | 0.25 | 0.00 | 92 | 1012.0 |
| 20260506092517 | -7 | 158 | 1.6 | 8.0 | 0.00 | 0.25 | 0.00 | 92 | 1011.7 |
| 20260506091517 | -7 | 135 | 4.8 | 11.3 | 0.00 | 0.25 | 0.00 | 92 | 1011.7 |
| 20260506090537 | -7 | 135 | 3.2 | 8.0 | 0.00 | 0.25 | 0.00 | 92 | 1011.7 |
| 20260506085517 | -7 | 135 | 4.8 | 12.9 | 0.00 | 0.25 | 0.00 | 92 | 1012.2 |
| 20260506084517 | -7 | 135 | 1.6 | 6.4 | 0.00 | 0.25 | 0.00 | 92 | 1012.1 |